| time (UTC) | temp F | wind direction | speed MPH | gust MPH | rain 1hr in | rain 24hr in | rain mn in | humidity % | barometer mb |
| 20260504201711 | 53 | 267 | 13.0 | 20.0 | 0.00 | 0.00 | 0.00 | 46 | 996.2 |
| 20260504201005 | 54 | 258 | 16.0 | 29.0 | 0.00 | 0.00 | 0.00 | 44 | 995.9 |
| 20260504200211 | 55 | 279 | 16.0 | 20.0 | 0.00 | 0.00 | 0.00 | 44 | 995.8 |
| 20260504200005 | 55 | 285 | 11.0 | 29.0 | 0.00 | 0.00 | 0.00 | 41 | 995.8 |
| 20260504195005 | 55 | 271 | 13.0 | 32.0 | 0.00 | 0.00 | 0.00 | 45 | 995.6 |
| 20260504194710 | 55 | 273 | 14.0 | 18.0 | 0.00 | 0.00 | 0.00 | 46 | 995.4 |
| 20260504194005 | 54 | 271 | 11.0 | 23.0 | 0.00 | 0.00 | 0.00 | 45 | 995.2 |
| 20260504193210 | 55 | 281 | 15.0 | 20.0 | 0.00 | 0.00 | 0.00 | 46 | 995.2 |
| 20260504193005 | 55 | 257 | 16.0 | 21.0 | 0.00 | 0.00 | 0.00 | 47 | 995.1 |
| 20260504192005 | 55 | 256 | 9.0 | 23.0 | 0.00 | 0.00 | 0.00 | 46 | 995.0 |
| 20260504191710 | 55 | 255 | 9.0 | 12.0 | 0.00 | 0.00 | 0.00 | 46 | 995.0 |
| 20260504191005 | 55 | 260 | 15.0 | 25.0 | 0.00 | 0.00 | 0.00 | 49 | 994.8 |
| 20260504190210 | 55 | 260 | 13.0 | 14.0 | 0.00 | 0.00 | 0.00 | 48 | 994.7 |
| 20260504190005 | 55 | 257 | 13.0 | 26.0 | 0.00 | 0.00 | 0.00 | 44 | 994.7 |
| 20260504185005 | 55 | 270 | 13.0 | 32.0 | 0.00 | 0.00 | 0.00 | 47 | 994.6 |
| 20260504184710 | 55 | 277 | 12.0 | 16.0 | 0.00 | 0.00 | 0.00 | 49 | 994.7 |
| 20260504184005 | 55 | 257 | 16.0 | 29.0 | 0.00 | 0.00 | 0.00 | 48 | 994.6 |
| 20260504183211 | 56 | 289 | 10.0 | 21.0 | 0.00 | 0.00 | 0.00 | 45 | 994.4 |
| 20260504182005 | 55 | 284 | 12.0 | 26.0 | 0.00 | 0.00 | 0.00 | 48 | 994.2 |
| 20260504181710 | 55 | 254 | 16.0 | 18.0 | 0.00 | 0.00 | 0.00 | 50 | 994.2 |
| 20260504181005 | 56 | 256 | 14.0 | 26.0 | 0.00 | 0.00 | 0.00 | 49 | 994.1 |
| 20260504180210 | 56 | 258 | 20.0 | 24.0 | 0.00 | 0.00 | 0.00 | 52 | 994.1 |
| 20260504180005 | 55 | 260 | 13.0 | 26.0 | 0.00 | 0.00 | 0.00 | 52 | 993.9 |
| 20260504175005 | 55 | 264 | 15.0 | 23.0 | 0.00 | 0.00 | 0.00 | 55 | 993.9 |
| 20260504174711 | 54 | 247 | 13.0 | 23.0 | 0.00 | 0.00 | 0.00 | 53 | 994.0 |
| 20260504174005 | 55 | 263 | 17.0 | 25.0 | 0.00 | 0.00 | 0.00 | 52 | 993.9 |
| 20260504173209 | 55 | 272 | 12.0 | 20.0 | 0.00 | 0.00 | 0.00 | 52 | 993.8 |
| 20260504173005 | 55 | 261 | 16.0 | 29.0 | 0.00 | 0.00 | 0.00 | 53 | 993.7 |
| 20260504172005 | 55 | 253 | 14.0 | 26.0 | 0.00 | 0.00 | 0.00 | 51 | 993.8 |
| 20260504171710 | 55 | 261 | 14.0 | 20.0 | 0.00 | 0.00 | 0.00 | 51 | 993.8 |
| 20260504171005 | 55 | 270 | 10.0 | 23.0 | 0.00 | 0.00 | 0.00 | 50 | 994.0 |
| 20260504170210 | 55 | 258 | 16.0 | 23.0 | 0.00 | 0.00 | 0.00 | 50 | 993.8 |
| 20260504160210 | 54 | 264 | 18.0 | 26.0 | 0.00 | 0.00 | 0.00 | 57 | 993.3 |
| 20260504150210 | 54 | 251 | 16.0 | 26.0 | 0.00 | 0.00 | 0.00 | 58 | 992.6 |
| 20260504141005 | 56 | 256 | 6.0 | 21.0 | 0.00 | 0.00 | 0.00 | 61 | 991.8 |
| 20260504140209 | 56 | 255 | 8.0 | 13.0 | 0.00 | 0.00 | 0.00 | 61 | 992.0 |
| 20260504130210 | 59 | 250 | 14.0 | 23.0 | 0.00 | 0.00 | 0.00 | 44 | 991.1 |
| 20260504120210 | 58 | 232 | 17.0 | 20.0 | 0.00 | 0.00 | 0.00 | 45 | 990.6 |
| 20260504110210 | 56 | 213 | 7.0 | 10.0 | 0.00 | 0.00 | 0.00 | 46 | 990.9 |
| 20260504100209 | 54 | 222 | 7.0 | 9.0 | 0.00 | 0.00 | 0.00 | 50 | 992.3 |
| 20260504081711 | 55 | 225 | 8.0 | 9.0 | 0.00 | 0.00 | 0.00 | 45 | 994.7 |
| 20260504081004 | 55 | 231 | 7.0 | 12.0 | 0.00 | 0.00 | 0.00 | 46 | 994.9 |
| 20260504050004 | 54 | 227 | 6.0 | 9.0 | 0.00 | 0.00 | 0.00 | 47 | 999.0 |
| 20260504045005 | 54 | 218 | 6.0 | 10.0 | 0.00 | 0.00 | 0.00 | 46 | 999.2 |
| 20260504044710 | 53 | 213 | 6.0 | 8.0 | 0.00 | 0.00 | 0.00 | 46 | 999.2 |
| 20260504044005 | 53 | 231 | 7.0 | 10.0 | 0.00 | 0.00 | 0.00 | 49 | 999.3 |
| 20260504043004 | 52 | 220 | 3.0 | 8.0 | 0.00 | 0.00 | 0.00 | 55 | 999.4 |
| 20260504042004 | 50 | 212 | 4.0 | 7.0 | 0.00 | 0.00 | 0.00 | 55 | 999.6 |
| 20260504041710 | 50 | 230 | 3.0 | 7.0 | 0.00 | 0.00 | 0.00 | 52 | 999.6 |
| 20260504040004 | 49 | 207 | 2.0 | 7.0 | 0.00 | 0.00 | 0.00 | 54 | 999.9 |
| 20260504034709 | 49 | 217 | 2.0 | 3.0 | 0.00 | 0.00 | 0.00 | 59 | 1000.3 |
| 20260504033005 | 50 | 216 | 2.0 | 6.0 | 0.00 | 0.00 | 0.00 | 65 | 1000.8 |
| 20260504032005 | 50 | 229 | 3.0 | 5.0 | 0.00 | 0.00 | 0.00 | 63 | 1000.9 |
| 20260504031710 | 50 | 225 | 3.0 | 3.0 | 0.00 | 0.00 | 0.00 | 63 | 1000.9 |
| 20260504025005 | 52 | 236 | 2.0 | 3.0 | 0.00 | 0.00 | 0.00 | 60 | 1001.2 |
| 20260504024710 | 52 | 265 | 1.0 | 2.0 | 0.00 | 0.00 | 0.00 | 60 | 1001.3 |
| 20260504024005 | 53 | 267 | 0.0 | 0.0 | 0.00 | 0.00 | 0.00 | 59 | 1001.3 |
| 20260504023005 | 53 | 267 | 0.0 | 0.0 | 0.00 | 0.00 | 0.00 | 57 | 1001.4 |
| 20260504022005 | 54 | 267 | 0.0 | 0.0 | 0.00 | 0.00 | 0.00 | 52 | 1001.4 |
| 20260504021710 | 54 | 267 | 0.0 | 0.0 | 0.00 | 0.00 | 0.00 | 49 | 1001.4 |
| 20260504021005 | 54 | 267 | 0.0 | 0.0 | 0.00 | 0.00 | 0.00 | 46 | 1001.5 |
| 20260504020004 | 55 | 267 | 0.0 | 0.0 | 0.00 | 0.00 | 0.00 | 43 | 1001.3 |
| 20260504015005 | 57 | 267 | 0.0 | 0.0 | 0.00 | 0.00 | 0.00 | 39 | 1001.3 |
| 20260504014710 | 57 | 267 | 0.0 | 0.0 | 0.00 | 0.00 | 0.00 | 39 | 1001.3 |
| 20260504013005 | 59 | 267 | 1.0 | 5.0 | 0.00 | 0.00 | 0.00 | 37 | 1001.5 |
| 20260504012004 | 60 | 258 | 1.0 | 3.0 | 0.00 | 0.00 | 0.00 | 36 | 1001.5 |
| 20260504011709 | 60 | 258 | 0.0 | 3.0 | 0.00 | 0.00 | 0.00 | 37 | 1001.6 |
| 20260504011005 | 61 | 258 | 2.0 | 3.0 | 0.00 | 0.00 | 0.00 | 35 | 1001.6 |
| 20260504010211 | 61 | 257 | 1.0 | 3.0 | 0.00 | 0.00 | 0.00 | 34 | 1001.5 |
| 20260504005005 | 61 | 267 | 1.0 | 5.0 | 0.00 | 0.00 | 0.00 | 33 | 1001.6 |
| 20260504004709 | 62 | 268 | 2.0 | 3.0 | 0.00 | 0.00 | 0.00 | 33 | 1001.6 |
| 20260504003005 | 62 | 279 | 2.0 | 9.0 | 0.00 | 0.00 | 0.00 | 33 | 1001.6 |
| 20260504002004 | 63 | 294 | 5.0 | 13.0 | 0.00 | 0.00 | 0.00 | 31 | 1001.8 |
| 20260504001709 | 63 | 260 | 5.0 | 7.0 | 0.00 | 0.00 | 0.00 | 31 | 1001.8 |
| 20260504001004 | 63 | 271 | 5.0 | 13.0 | 0.00 | 0.00 | 0.00 | 29 | 1001.8 |
| 20260504000004 | 63 | 252 | 3.0 | 9.0 | 0.00 | 0.00 | 0.00 | 30 | 1001.9 |
| 20260503235004 | 63 | 278 | 4.0 | 13.0 | 0.00 | 0.00 | 0.00 | 29 | 1002.0 |
| 20260503234710 | 63 | 272 | 3.0 | 5.0 | 0.00 | 0.00 | 0.00 | 30 | 1001.9 |
| 20260503232005 | 64 | 268 | 3.0 | 12.0 | 0.00 | 0.00 | 0.00 | 27 | 1001.9 |
| 20260503231710 | 64 | 282 | 5.0 | 12.0 | 0.00 | 0.00 | 0.00 | 27 | 1002.0 |
| 20260503230004 | 64 | 247 | 3.0 | 10.0 | 0.00 | 0.00 | 0.00 | 26 | 1002.0 |
| 20260503225005 | 64 | 272 | 3.0 | 15.0 | 0.00 | 0.00 | 0.00 | 24 | 1002.0 |
| 20260503224709 | 64 | 288 | 2.0 | 10.0 | 0.00 | 0.00 | 0.00 | 25 | 1001.9 |
| 20260503224004 | 64 | 252 | 5.0 | 17.0 | 0.00 | 0.00 | 0.00 | 27 | 1001.9 |
| 20260503223004 | 64 | 165 | 2.0 | 13.0 | 0.00 | 0.00 | 0.00 | 23 | 1002.0 |
| 20260503222005 | 64 | 254 | 4.0 | 15.0 | 0.00 | 0.00 | 0.00 | 28 | 1002.1 |
| 20260503221710 | 64 | 219 | 3.0 | 3.0 | 0.00 | 0.00 | 0.00 | 25 | 1002.0 |
| 20260503221004 | 64 | 270 | 7.0 | 15.0 | 0.00 | 0.00 | 0.00 | 22 | 1001.9 |
| 20260503215005 | 64 | 269 | 7.0 | 16.0 | 0.00 | 0.00 | 0.00 | 24 | 1002.0 |
| 20260503214710 | 64 | 288 | 7.0 | 12.0 | 0.00 | 0.00 | 0.00 | 24 | 1002.1 |
| 20260503212005 | 65 | 300 | 7.0 | 17.0 | 0.00 | 0.00 | 0.00 | 26 | 1001.9 |
| 20260503211709 | 64 | 284 | 6.0 | 12.0 | 0.00 | 0.00 | 0.00 | 24 | 1002.0 |
| 20260503211004 | 65 | 304 | 7.0 | 16.0 | 0.00 | 0.00 | 0.00 | 24 | 1001.9 |
| 20260503210005 | 65 | 272 | 5.0 | 16.0 | 0.00 | 0.00 | 0.00 | 24 | 1001.9 |
| 20260503204710 | 64 | 271 | 10.0 | 17.0 | 0.00 | 0.00 | 0.00 | 28 | 1002.1 |
| 20260503204004 | 64 | 254 | 12.0 | 18.0 | 0.00 | 0.00 | 0.00 | 27 | 1002.1 |
| 20260503203209 | 65 | 289 | 6.0 | 14.0 | 0.00 | 0.00 | 0.00 | 28 | 1002.1 |
| 20260503203004 | 65 | 326 | 7.0 | 15.0 | 0.00 | 0.00 | 0.00 | 28 | 1001.9 |